Find Starlink 30612

NORAD ID: 58106 Int'l Des: 2023-161 Owner: SPXS Country: US Constellation: starlink operational
LEOCIRCULAR

Current View

Loading 3D Globe...

About Starlink 30612

Starlink 30612 (NORAD 58106) is a starlink constellation satellite (v2 mini) launched Oct 21, 2023 by SPXS of US. It operates in LEO, CIRCULAR orbit with a mass of 730.00 kg.

Upcoming Passes

Passes for default location (London). Set your location on the main map for personalized predictions.

Altitude History

Loading altitude history...

Two-Line Element Set

1 58106U 23161K 26230.07324439 .00000597 00000-0 28826-4 0 9999
2 58106 53.1587 119.9022 0001421 92.5749 267.5417 15.34387782159341
Epoch: Aug 18, 2026 • Age: 16 hours

Current Status

Altitude 463.5 km
Apogee / Perigee N/A
Velocity 7.64 km/s
Sub-Earth Point 1.27°N, 110.24°W
Launch Date Oct 21, 2023
Age 2.8 years
Type internet

Technical Details

Classification Payload
Mass 730.00 kg
Dry Mass 700.00 kg
Total Mass 730.00 kg
Length 0.30 m
Diameter 4.10 m
Span 29.00 m
Shape Box + pan
Manufacturer SPXS
Bus Type Starlink V2M
Phase Status In Orbit
Owner/State SPXS/US

Most Searched